Regional Weather Roundup
Issued by NWS

Home | Current Version | Previous Version | Graphics & Text | Print | Product List | Glossary On
Versions: 1 2 3 4 5 6 7 8 9 10 11 12 13 14 15 16 17 18 19 20 21 22 23 24 25 26 27 28 29 30 31 32 33 34 35 36 37 38 39 40 41 42 43 44 45 46 47 48 49 50
000
ASUS43 KBIS 011810
RWRND

NORTH DAKOTA REGIONAL WEATHER ROUNDUP
NATIONAL WEATHER SERVICE BISMARCK ND
100 PM CDT SUN MAY 01 2016

NOTE: "FAIR" INDICATES FEW OR NO CLOUDS BELOW 12,000 FEET WITH NO
SIGNIFICANT WEATHER AND/OR OBSTRUCTIONS TO VISIBILITY.


NDZ001>003-009>011-017-011900-
NORTHWEST NORTH DAKOTA

CITY           SKY/WX    TMP DP  RH WIND       PRES   REMARKS
WILLISTON      SUNNY     62  27  26 VRB3      30.29F
6HR MIN TEMP:  33; 6HR MAX TEMP:  62;

MINOT          SUNNY     64  26  23 W8        30.28F
MINOT AFB      SUNNY     58  27  29 VRB5      30.27F
$$

NDZ018>021-031>035-040>046-011900-
SOUTHWEST NORTH DAKOTA

CITY           SKY/WX    TMP DP  RH WIND       PRES   REMARKS
BISMARCK       SUNNY     59  27  29 N8        30.28F
6HR MIN TEMP:  34; 6HR MAX TEMP:  60;

DICKINSON      SUNNY     58  28  32 VRB6      30.27F
GARRISON         N/A     58  26  29 VRB3      30.28F
6HR MIN TEMP:  32; 6HR MAX TEMP:  59;

HETTINGER ARPT SUNNY     58  28  32 NE8       30.30F
$$

NDZ004>008-012>016-024-026-027-054-011900-
NORTHEAST NORTH DAKOTA

CITY           SKY/WX    TMP DP  RH WIND       PRES   REMARKS
GRAND FORKS    SUNNY     62  30  29 E7        30.25F
GRND FRKS AFB  SUNNY     59  27  29 NE9       30.25F
DEVILS LAKE    SUNNY     58  29  33 SW13      30.27F
$$

NDZ022-023-025-028>030-036>039-047>053-011900-
SOUTHEAST NORTH DAKOTA

CITY           SKY/WX    TMP DP  RH WIND       PRES   REMARKS
FARGO          SUNNY     61  29  29 NW10      30.23F
6HR MIN TEMP:  33; 6HR MAX TEMP:  61;

JAMESTOWN      SUNNY     59  29  31 N9        30.25F
$$




USA.gov is the U.S. government's official web portal to all federal, state and local government web resources and services.